Find Local Weather

World > North America > United States > Michigan

Dowagiac, Michigan Regional Weather

Lat: 41.98N, Lon: 86.11W
Wx Zone: MIZ078
Warning FLW WEATHER ALERT - (More Info. Click Here) Warning
Feedback
Expires:201806211900;;890728
ASUS43 KDTX 211801
RWRMI 
MICHIGAN HOURLY REGIONAL WEATHER ROUNDUP
NATIONAL WEATHER SERVICE DETROIT/PONTIAC MI
200 PM EDT THU JUN 21 2018

NOTE: "FAIR" INDICATES FEW OR NO CLOUDS BELOW 12,000 FEET WITH NO
SIGNIFICANT WEATHER AND/OR OBSTRUCTION TO VISIBILITY.


MIZ043>046-050>051-056>058-064>065-071>073-077>080-211900-
SOUTHWEST LOWER MICHIGAN
  
CITY           SKY/WX    TMP DP  RH WIND       PRES   REMARKS
BATTLE CREEK   FAIR      73  57  57 E10       29.85F                  
6HR MIN TEMP:  64; 6HR MAX TEMP:  75;                                

BENTON HARBOR  LGT RAIN  71  61  70 E10       29.81R                  
6HR MIN TEMP:  65; 6HR MAX TEMP:  72; 6HR PCP: TRACE;                

BIG RAPIDS     FAIR      75  54  47 SE15      29.89F                  
6HR MIN TEMP:  61; 6HR MAX TEMP:  75;                                

COLDWATER      FAIR      72  55  54 E13G18    29.84S                  
6HR MIN TEMP:  64; 6HR MAX TEMP:  72;                                

FREMONT        FAIR      76  58  52 E12G17    29.86F                  
6HR MIN TEMP:  63; 6HR MAX TEMP:  77;                                

HOLLAND        CLOUDY    73  54  51 E13       29.83F                  
6HR MIN TEMP:  64; 6HR MAX TEMP:  74;                                

GRAND RAPIDS   PTSUNNY   73  56  54 E14       29.85F                  
6HR MIN TEMP:  63; 6HR MAX TEMP:  77;                                

IONIA          FAIR      73  55  53 E10       29.86F                  
6HR MIN TEMP:  62; 6HR MAX TEMP:  74;                                

KALAMAZOO      FAIR      74  59  59 E12G18    29.83F                  
6HR MIN TEMP:  64; 6HR MAX TEMP:  75;                                

LUDINGTON      FAIR      79  57  46 E13G18    29.86F                  
6HR MIN TEMP:  61; 6HR MAX TEMP:  79;                                

MARSHALL       FAIR      72  53  51 E7        29.85F                  
6HR MIN TEMP:  62; 6HR MAX TEMP:  72;                                

MOUNT PLEASANT FAIR      75  59  57 E9        29.90S                  
6HR MIN TEMP:  60; 6HR MAX TEMP:  75;                                

MUSKEGON       PTSUNNY   76  53  44 E16G23    29.85F                  
6HR MIN TEMP:  64; 6HR MAX TEMP:  76;                                

SOUTH HAVEN    PTSUNNY   73  60  64 E9        29.81S                  
$$

SKY/WX - Weather  TMP - Temperature  DP - Dewpoint  RH - Relative Humidity
WIND - Wind Direction/Speed PRES - Barometric Pressure